DECAYED

OBJECT BR, 56989 (Decayed)

Orbit data source: Space-Track

You're viewing an Uncataloged Satellite

Recently launched and/or uncataloged satellites may have evolving metadata. Metadata may include but not limited to: Owner, Maufacturer, Bus, Motor, and Mission.

OBJECT BR, 56989 was a satellite in SSO that was launched on Mon, 12 Jun 2023 UTC via an FALCON 9 launch vehicle from the Air Force Western Test Range (AFWTR). Unknown objects in Earth's orbit typically refer to objects detected orbiting the Earth but have not yet been identified or cataloged. These objects could be anything from previously untracked satellites, spent rocket stages, debris from satellite collisions, or even natural meteoroids temporarily captured by Earth's gravity. This object's orbit decayed before it could be identified.

Loading next visibility...
Identifier
56989, 2023-084BR
Orbit
Decayed
Last TLE update
10 months ago
Origin
Flag of TBDBRONC (TBD)
Manufacturer
BRONC/STANSI
Mission
Decayed Amateur Technology
Bus & Motor
CUBESAT 1U, Unknown motor
Mass
1 kg wet, 1 kg dry
Launch date (UTC)
2023-06-12 (2 years ago)
Launch vehicle
FALCON 9
Launch site
Air Force Western Test Range (AFWTR)
Object type
Unknown
Shape & HBR
Box, 0.1 m
Radar Cross Section
0.015 m², Small (<0.1 m²)

Expand to show TLE details & history

TLE from 10 months ago
0 OBJECT BR
1 56989U 23084BR  24242.31976040  .03115048  24175-1  32203-2 0  9992
2 56989  97.5000   9.7751 0014049 288.1312  71.8443 16.14955306 67855
Epoch: 2024-08-29T07:40Z
TLE epoch observation values (Epoch: 2024-08-29T07:40:27.298Z)
Latitude
-0.00009°
Longitude
-83.34745°
Altitude
233.616 km
Speed
7.768 km/s
True Right ascension
00h 39m 06s
True Declination
0° 00' 00"
Sunlit
Object was in full shadow at epoch
Visualization orbit readout
Visualization observer readout
Orbital elements
Apogee altitude
239.413 km
Perigee altitude
220.845 km
Semi-major axis
6,608.266 km
Eccentricity
0.0014
Inclination
97.5°
RAAN
9.7751°
Arg. of periapsis
288.1312°
True anomaly
Unknown
Mean anomaly
71.8443°
Eccentric anomaly
Unknown
Mean motion
4.04028 °/min
Orbital period
89.1 mins
BSTAR
0.0032203
Loading maneuver chart data...
Loading SW <> Apogee altitude chart data...
Loading historical data...
Loading historical data...
Loading historical data...
Loading historical data...
Loading historical data...
Loading historical data...
Loading historical data...

OBJECT BR Visibility forecast

Observer location: undefined°, undefined°

Span
Click to sort rows by Start time (UTC) header in descending order
Start Az.
Max El. time (UTC)
Max El. Az.
Max El.
End time (UTC)
End Az.
4 mins2025-07-06 01:57:24.926Z29.873° NE2025-07-06 02:01:24.926Z19.089° NNE32.266°2025-07-06 02:01:24.926Z19.089° NNE
6 mins2025-07-06 07:49:24.926Z101.503° ESE2025-07-06 07:55:24.926Z35.228° NE43.358°2025-07-06 07:55:24.926Z35.228° NE
4 mins2025-07-06 08:23:24.926Z150.834° SSE2025-07-06 08:25:24.926Z353.779° N37.291°2025-07-06 08:27:24.926Z150.849° SSE
4 mins2025-07-06 08:31:24.926Z150.285° SSE2025-07-06 08:33:24.926Z353.089° N37.036°2025-07-06 08:35:24.926Z155.237° SSE
6 mins2025-07-06 09:04:24.926Z160.154° S2025-07-06 09:09:24.926Z153.625° SSE43.905°2025-07-06 09:10:24.926Z353.041° N
4 mins2025-07-06 15:20:24.926Z308.101° NW2025-07-06 15:20:24.926Z308.101° NW25.669°2025-07-06 15:24:24.926Z288.701° WNW
6 mins2025-07-06 18:33:24.926Z9.362° NNE2025-07-06 18:38:24.926Z44.256° NE36.119°2025-07-06 18:39:24.926Z120.18° SE
|